Location: Altleiningen
(49.5078°N, 8.0741°E)
Time: 20:53:57
(UTC+00:00)

Cosmos 2263 Rocket - Pass Details

Date: 14 June 2025
Orbit: 821 x 848 km, 71.0° (Epoch: 16 July)

Event Time Altitude Azimuth Distance (km) Brightness Sun altitude
Rises 23:25:38 0° 252° (WSW) 3,398 5.2 -17.2°
Reaches altitude 10° 23:28:35 10° 267° (W) 2,470 4.6 -17.2°
Maximum altitude 23:33:03 23° 319° (NW) 1,724 4.4 -17.2°
Drops below altitude 10° 23:37:33 10° 11° (NNE) 2,484 5.9 -17.2°
Sets 23:40:32 0° 26° (NNE) 3,423 6.6 -17.1°
